SCP
1 1 2 2 3 2 2 2 2 1 1 1 2 2 3 3 2 2 1 1 1 1 1 1 1 1 1 1 2 2 1 1 1 1 1 1 1 1 1 1 1 1 1
1 1 1 2 3 3 2 2 2 1 1 1 1 2 2 2 2 2 1 2 2 2 1 1 1 1 1 1 2 2 2 2 1 1 1 1 1 1 1 1 1 1 1
2 2 2 2 3 3 3 3 2 2 2 2 1 1 1 1 1 1 1 2 2 2 2 2 1 1 1 2 2 2 2 2 2 2 1 1 1 1 1 1 1 1 1
2 2 2 3 3 3 3 3 3 3 3 3 3 2 2 2 2 1 1 1 2 2 2 2 1 1 2 2 2 3 3 3 3 2 2 2 2 2 2 2 2 2 2
2 2 3 3 3 3 3 3 3 4 4 4 4 4 4 4 3 2 1 1 1 2 2 2 2 2 2 2 2 3 4 4 4 3 3 3 2 2 2 2 2 2 2
3 3 3 3 2 2 2 2 3 4 4 4 4 5 5 5 4 3 2 2 2 2 2 2 2 2 2 2 2 3 4 5 5 4 4 4 3 3 3 2 2 2 2
3 3 2 2 2 2 2 2 3 3 4 4 4 5 5 5 4 3 2 2 2 2 2 2 2 2 3 3 3 3 4 4 5 5 5 4 4 4 3 3 3 2 2
3 3 3 3 2 2 2 2 3 3 3 3 4 4 4 4 3 2 1 1 2 2 2 2 2 2 2 3 4 4 5 4 4 5 5 5 4 4 3 2 3 3 2
3 3 3 3 3 3 2 2 3 3 3 3 3 3 3 2 1 1 0 1 1 2 2 2 2 2 1 2 3 5 6 6 5 4 4 4 4 3 2 2 2 2 2
3 3 3 3 4 4 3 3 3 3 3 2 2 2 2 1 1 0 0 1 1 1 2 2 2 1 1 1 2 4 6 7 7 6 4 3 3 2 2 1 1 1 1
3 3 3 4 4 4 4 3 3 2 2 2 2 2 2 1 1 1 0 1 1 1 1 2 1 1 0 0 1 3 5 7 9 9 7 5 3 2 1 1 1 1 1
3 3 3 4 5 4 4 3 3 2 2 2 2 2 2 2 2 1 1 0 1 1 1 1 1 0 0 0 0 1 3 6 8 9 8 7 5 3 1 1 1 1 1
2 2 3 4 4 4 3 3 3 2 2 2 2 2 2 2 2 2 1 0 0 1 1 1 1 0 0 0 0 0 2 5 8 9 8 7 6 4 2 1 1 1 1
1 1 2 2 3 3 3 3 3 2 2 2 2 2 3 3 2 2 1 1 0 0 1 1 0 0 0 0 0 0 2 5 8 8 8 7 6 5 3 2 1 1 1
1 1 1 1 1 2 3 3 3 3 2 2 2 3 3 2 2 1 1 1 1 0 0 0 0 0 0 0 0 1 3 6 8 8 7 7 6 5 3 2 2 2 2
1 1 2 1 1 2 2 2 2 2 2 1 1 2 2 1 1 0 0 0 0 0 0 1 1 1 0 0 0 1 3 6 8 8 7 7 6 5 4 3 2 2 2
2 2 2 2 2 2 2 2 2 2 1 1 1 1 1 1 0 0 0 0 0 0 0 1 1 1 1 1 0 1 2 5 8 8 7 7 6 5 4 2 2 2 1
2 2 2 2 3 3 3 3 3 3 2 2 1 0 0 0 0 0 0 0 0 0 0 1 1 1 1 1 0 0 1 4 6 7 7 6 5 4 3 2 1 1 1
2 3 2 2 2 3 3 3 3 3 3 3 2 1 1 0 0 0 0 0 0 0 0 0 1 1 1 1 1 1 1 3 5 6 6 5 4 3 2 1 1 1 1
2 2 2 2 2 2 2 3 3 3 3 3 3 3 2 1 0 0 0 0 0 0 0 0 0 1 1 1 1 1 1 2 4 4 4 4 3 2 1 1 1 1 1
1 1 1 1 1 1 1 1 2 2 3 3 3 3 2 1 1 1 1 1 0 0 1 1 0 0 1 1 1 2 2 2 3 3 3 3 2 1 1 1 1 1 1
1 1 1 1 0 0 0 1 1 1 2 2 2 2 2 1 2 2 2 1 1 1 1 0 0 0 0 1 1 1 2 2 2 2 2 1 1 1 1 1 1 1 0
1 1 1 0 0 0 0 0 0 1 1 1 2 2 2 2 2 2 2 2 2 1 1 1 0 0 0 0 1 1 1 1 1 1 1 1 1 1 1 1 1 1 0
0 0 0 0 0 0 0 0 0 1 1 1 1 1 2 2 2 2 2 2 2 2 1 1 0 0 0 0 0 0 0 0 0 0 0 0 0 1 1 1 1 1 1
0 0 0 0 0 0 0 0 0 1 1 1 1 1 1 1 1 1 2 2 2 1 1 0 0 0 0 0 0 0 0 0 0 0 0 0 0 0 1 1 1 1 1
0 0 0 0 0 0 0 0 0 0 1 1 1 1 1 1 1 1 1 1 1 1 0 0 0 0 0 0 0 0 0 0 0 0 0 0 0 0 0 1 1 1 1
Wind_Speed
5 4 4 4 4 3 3 3 3 3 3 3 3 3 3 3 3 3 3 2 3 2 2 2 2 2 2 2 2 2 2 2 3 3 2 2 2 2 2 1 1 2 2
4 4 4 3 3 3 3 3 3 3 3 3 3 2 3 3 3 3 3 2 3 3 3 2 3 2 2 2 2 2 2 2 3 3 2 2 2 2 2 2 2 2 2
4 4 4 3 3 4 4 3 3 3 3 3 2 2 2 2 2 3 3 3 3 4 4 4 4 3 3 2 2 2 2 2 2 2 2 2 1 1 1 1 1 1 2
4 4 4 4 4 4 3 3 3 3 3 3 2 2 3 2 2 2 2 3 3 3 3 3 3 4 4 3 3 3 2 2 1 2 2 1 1 1 1 1 1 1 2
4 4 4 4 3 3 3 3 3 3 3 2 2 2 2 2 2 2 2 2 2 2 2 3 3 4 4 3 3 2 2 2 1 1 2 2 2 1 2 2 2 2 2
4 4 3 3 2 3 3 3 3 3 2 2 2 3 3 3 3 3 3 2 2 3 3 3 3 3 3 4 4 3 4 3 3 2 2 3 3 3 2 2 2 2 2
3 2 2 3 3 3 3 2 3 3 3 2 3 3 3 4 4 3 3 3 3 3 3 3 3 2 2 2 2 2 3 4 5 4 4 5 4 4 3 3 3 3 4
3 2 2 3 3 2 2 3 3 2 2 3 3 3 3 4 3 3 3 2 3 3 3 3 3 3 2 2 2 2 2 3 4 4 5 5 5 4 5 4 4 3 3
3 3 2 3 3 2 3 3 2 2 2 2 2 2 2 3 3 3 2 2 2 3 3 3 3 3 3 3 2 2 3 3 3 4 5 5 5 6 5 3 3 3 3
3 3 2 2 3 3 4 3 2 2 2 2 2 2 3 3 3 3 2 2 2 2 2 2 4 4 3 3 3 3 4 4 3 3 3 3 3 4 6 6 5 4 3
2 1 1 2 3 3 2 2 1 2 1 1 2 2 3 3 3 4 3 2 3 2 2 2 2 4 4 3 3 4 5 4 3 3 2 2 2 2 3 4 5 5 5
1 1 1 2 2 2 1 1 2 2 2 2 2 3 2 3 3 4 5 5 4 3 3 3 3 4 4 4 4 4 4 3 2 2 2 2 3 3 3 3 4 5 5
2 2 2 2 1 1 2 2 2 2 2 2 2 3 3 2 3 4 5 5 5 3 3 4 4 4 4 4 4 4 3 2 2 2 3 3 3 3 3 2 2 3 4
3 3 2 2 2 1 2 2 2 3 3 3 3 4 3 3 3 3 2 3 4 3 2 2 3 3 3 3 3 2 2 3 3 3 3 3 2 2 2 2 2 2 2
3 2 2 3 3 2 2 2 3 4 4 5 4 4 4 5 5 5 3 3 3 3 2 1 1 1 1 2 2 2 2 2 2 2 2 2 2 2 2 2 1 1 2
3 3 2 2 2 2 2 2 3 4 5 6 6 6 5 6 6 6 6 5 4 4 2 2 3 3 3 3 3 2 2 3 3 3 3 3 2 2 2 2 1 2 2
4 4 3 3 3 3 3 3 3 3 3 4 5 5 6 5 5 5 5 4 4 4 3 4 4 4 4 4 3 3 3 3 3 3 3 3 3 3 2 2 2 2 2
4 4 4 4 4 4 4 4 3 3 3 3 3 5 6 6 5 5 4 3 2 3 4 4 4 4 4 4 4 4 3 3 3 3 3 3 3 3 3 3 3 3 3
4 3 3 3 3 3 3 3 3 4 4 3 3 3 4 4 3 3 4 3 4 4 4 4 4 4 4 4 4 4 4 3 3 3 4 4 4 4 4 4 3 4 3
4 5 4 3 3 3 3 3 3 3 4 4 4 4 2 1 2 2 3 3 4 4 5 5 4 4 4 4 4 4 4 4 4 4 4 4 4 4 4 5 4 4 4
3 4 4 3 4 4 4 4 4 4 4 4 4 4 4 3 4 4 4 4 5 5 5 4 4 4 4 4 4 5 5 4 4 4 4 4 4 4 4 4 4 4 4
3 3 4 4 4 4 4 4 4 4 4 5 4 3 5 3 3 4 4 4 4 4 4 3 4 4 4 4 4 4 4 4 4 4 4 4 3 4 4 4 4 4 4
4 4 4 4 4 4 4 3 4 4 4 4 4 3 3 3 3 3 4 3 3 3 2 2 3 3 3 3 3 4 4 4 4 4 3 3 3 4 4 4 4 4 4
4 4 4 4 3 3 3 3 4 4 4 4 3 3 3 3 3 3 3 2 2 2 2 2 3 4 4 3 2 3 3 3 3 3 4 4 4 4 4 4 4 5 5
3 4 4 3 3 3 3 3 3 3 3 3 3 2 2 2 2 2 2 2 2 2 2 2 2 3 4 4 3 3 2 3 3 3 3 4 4 4 4 4 4 4 4
3 3 3 2 2 2 2 2 2 2 2 2 1 1 1 2 2 1 1 1 1 2 2 2 2 3 3 2 3 3 2 3 3 3 3 3 4 4 3 3 4 4 4
Wind_Direction
183 184 187 190 188 183 190 204 210 218 219 219 230 236 242 237 226 211 222 218 217 233 235 216 238 240 231 219 201 200 207 202 237 264 258 278 267 271 298 284 265 250 235
189 187 195 195 182 186 199 207 207 217 221 221 226 231 245 246 230 217 225 221 214 227 234 229 240 236 235 229 206 212 216 214 219 252 266 265 258 267 277 283 280 260 248
175 184 193 200 198 200 205 209 208 215 221 218 214 229 246 248 232 221 215 213 214 221 222 225 235 226 241 237 221 219 221 227 222 229 262 267 263 261 281 287 283 293 276
167 178 196 206 206 207 207 209 213 212 215 223 224 239 245 244 235 225 218 219 225 234 233 232 234 225 229 231 230 224 216 222 218 222 252 266 262 261 221 255 280 285 285
166 180 206 212 204 199 203 212 213 209 217 218 225 248 255 245 238 226 218 223 226 246 252 246 243 233 228 226 233 218 204 210 206 215 243 260 261 241 234 226 245 276 275
172 193 202 193 196 206 206 207 209 214 219 211 229 242 254 260 258 234 211 223 226 236 249 255 251 245 243 242 247 236 209 203 208 213 232 242 255 245 239 231 226 242 262
175 190 192 191 200 215 211 201 211 217 218 226 233 232 248 256 256 245 219 211 229 235 236 241 249 252 247 236 249 253 242 230 212 208 223 238 236 227 216 231 227 229 242
178 185 193 196 208 212 207 219 224 218 218 222 225 231 246 264 267 249 232 218 236 246 241 226 229 251 242 220 223 246 259 253 241 229 230 238 235 225 216 221 228 239 255
192 201 208 202 203 202 213 227 223 213 223 218 219 223 238 269 278 260 221 216 238 254 252 233 221 228 229 214 219 248 269 275 262 249 251 250 243 233 213 198 209 219 245
219 218 214 201 203 212 219 219 211 204 218 219 233 233 237 257 270 259 218 209 239 257 260 245 226 225 225 215 215 223 246 263 275 287 282 276 256 236 214 209 212 218 227
229 221 224 219 213 213 212 206 208 208 214 228 245 258 254 260 265 249 225 208 223 243 256 260 253 238 236 237 226 225 238 250 257 260 269 274 270 251 231 223 217 215 219
184 207 234 232 230 213 199 216 208 198 210 233 248 277 275 266 257 247 232 225 218 222 243 251 256 253 247 249 243 238 233 231 231 241 252 259 260 260 258 249 237 229 231
160 198 233 230 217 195 198 212 214 208 218 237 237 255 271 271 262 252 241 237 232 230 245 250 260 263 260 252 242 236 214 207 211 224 242 250 255 260 266 264 259 246 242
184 201 205 203 218 214 214 215 208 214 223 233 238 247 257 260 257 250 244 239 238 242 255 270 275 265 252 251 251 239 221 213 214 226 243 256 259 258 262 259 250 248 237
199 204 206 207 208 212 223 229 230 232 220 222 234 235 238 252 248 234 229 237 235 234 233 266 280 281 263 252 249 248 230 209 218 230 234 251 258 256 268 269 249 238 233
200 209 215 213 214 210 220 264 258 241 245 240 235 232 240 242 253 243 236 234 227 204 194 233 247 249 248 249 246 249 246 232 230 231 231 229 235 245 261 271 253 237 241
205 210 215 218 217 213 214 221 260 287 279 255 246 244 240 249 248 238 228 222 217 190 208 231 239 244 247 246 242 242 243 240 229 225 228 230 233 239 241 246 248 247 251
214 217 217 219 219 217 218 220 223 233 259 276 268 252 251 255 252 238 209 175 205 206 225 230 235 240 241 239 237 238 241 235 227 229 229 228 226 226 230 235 237 247 250
216 219 218 223 222 222 220 219 224 228 236 252 274 274 258 251 250 236 190 203 224 229 229 235 237 236 236 237 236 233 232 232 232 234 235 229 224 224 230 234 235 238 243
227 230 223 218 224 224 223 222 227 228 233 241 250 257 250 204 227 232 217 226 231 236 233 234 236 233 230 231 232 231 233 237 237 236 240 238 229 227 232 235 234 233 235
224 228 226 223 224 223 225 226 227 228 233 239 247 246 224 225 232 233 227 229 234 238 238 238 237 235 230 229 230 232 235 239 237 236 235 234 232 231 231 234 237 237 237
216 220 217 220 224 226 230 230 228 230 236 241 251 248 222 227 237 240 240 239 240 241 240 238 241 237 229 227 225 227 232 238 238 234 235 236 234 234 233 231 231 229 228
215 221 220 219 221 224 229 233 233 233 236 238 240 243 233 238 245 248 251 251 248 248 243 232 237 244 238 235 232 225 228 236 237 232 230 233 236 236 234 237 236 235 229
215 216 216 216 217 218 224 232 234 235 237 240 240 238 238 240 244 248 253 257 255 254 247 240 243 247 248 247 241 233 233 242 241 229 224 228 233 240 240 242 242 238 236
208 209 210 209 210 219 229 234 235 235 236 239 239 238 242 242 246 254 261 266 270 277 278 265 262 261 261 259 254 242 235 231 237 237 232 230 233 237 239 241 240 241 238
214 210 208 211 212 215 223 233 240 239 232 225 225 231 237 241 250 258 266 282 285 288 292 284 280 274 270 265 265 258 236 231 238 239 231 230 233 237 238 240 242 244 244